Weather History for Hamilton Island, QU

Change the Weather History Date:

Wednesday, July 17, 2013

  Actual Average Record
Temperature  
Mean Temperature 66 °F -  
Max Temperature 69 °F - - ()
Min Temperature 64 °F - - ()
Cooling Degree Days 2    
Growing Degree Days 16 (Base 50)    
Moisture  
Dew Point 66 °F    
Average Humidity 93    
Maximum Humidity 100    
Minimum Humidity 85    
Precipitation  
Precipitation 0.03 in - - ()
Sea Level Pressure  
Sea Level Pressure 30.08 in    
Wind  
Wind Speed 23 mph ()    
Max Wind Speed 42 mph    
Max Gust Speed -    
T = Trace of Precipitation, MM = Missing Value Source: Averaged Metar Reports

Daily Weather History Graph

Daily Weather History Graph

Search for Another Location

Airport:

Trip Planner

Search our weather history database for the weather conditions in past years. The results will help you decide how hot, cold, wet, or windy it might be!

Date:

Astronomy

Jul. 17, 2013 Rise Set
Actual Time 6:39 AM AEST 5:41 PM AEST
Civil Twilight 6:15 AM AEST 6:04 PM AEST
Nautical Twilight 5:48 AM AEST 6:32 PM AEST
Astronomical Twilight 5:21 AM AEST 6:58 PM AEST
Moon 12:20 PM AEST (7/17) 12:35 AM AEST (7/17)
Length of Visible Light 11h 48m
Length of Day
11h 01m
First Quarter, 60% of the Moon is Illuminated
Jul 17
First Quarter
Jul 23
Full
Jul 30
Last Quarter
Aug 7
New
Aug 14
First Quarter

Hourly Weather History & Observations

Time (AEST) Temp. Dew Point Humidity Pressure Visibility Wind Dir Wind Speed Gust Speed Precip Events Conditions
12:00 AM 67 °F 65 °F 92% 30.13 in - SSE 42.5 mph - -  
12:00 AM 68.0 °F 64.4 °F 88% 30.12 in - SSE 21.9 mph - N/A   Unknown
12:30 AM 68.0 °F 66.2 °F 94% 30.12 in - SE 21.9 mph - N/A   Unknown
1:00 AM 68.0 °F 66.2 °F 94% 30.09 in - SSE 21.9 mph - N/A   Unknown
1:30 AM 68.0 °F 66.2 °F 94% 30.09 in - SSE 19.6 mph - N/A   Unknown
2:00 AM 66.2 °F 66.2 °F 100% 30.09 in - SSE 21.9 mph - N/A   Unknown
2:30 AM 66.2 °F 66.2 °F 100% 30.06 in - SSE 20.7 mph - N/A   Unknown
3:00 AM 67 °F 65 °F 92% 30.09 in - SSE 40.3 mph - -  
3:00 AM 66.2 °F 66.2 °F 100% 30.06 in - SSE 20.7 mph - N/A   Unknown
3:30 AM 66.2 °F 64.4 °F 94% 30.06 in - SSE 21.9 mph - N/A   Unknown
4:00 AM 66.2 °F 64.4 °F 94% 30.06 in - SSE 19.6 mph - N/A   Unknown
4:30 AM 66.2 °F 64.4 °F 94% 30.06 in - SSE 21.9 mph - N/A   Unknown
5:00 AM 66.2 °F 66.2 °F 100% 30.06 in - SE 23.0 mph - N/A   Unknown
5:30 AM 66.2 °F 64.4 °F 94% 30.06 in - SSE 21.9 mph - N/A   Unknown
6:00 AM 66 °F 65 °F 96% 30.10 in - SSE 35.8 mph - -  
6:00 AM 66.2 °F 64.4 °F 94% 30.09 in - SSE 18.4 mph - N/A   Unknown
6:30 AM 66.2 °F 66.2 °F 100% 30.09 in - SSE 21.9 mph - N/A   Unknown
7:00 AM 66.2 °F 66.2 °F 100% 30.09 in - SSE 21.9 mph - N/A   Unknown
7:30 AM 66.2 °F 66.2 °F 100% 30.09 in - SSE 20.7 mph - N/A   Unknown
8:00 AM 68.0 °F 66.2 °F 94% 30.12 in - SSE 20.7 mph - N/A   Unknown
8:30 AM 68.0 °F 66.2 °F 94% 30.12 in - SSE 23.0 mph - N/A   Unknown
9:00 AM 68 °F 66 °F 93% 30.13 in - SSE 21.9 mph - -  
9:00 AM 68.0 °F 66.2 °F 94% 30.12 in - SSE 21.9 mph - N/A   Unknown
9:30 AM 68.0 °F 66.2 °F 94% 30.12 in - SSE 19.6 mph - N/A   Unknown
10:00 AM 69.8 °F 66.2 °F 88% 30.12 in - SSE 21.9 mph - N/A   Unknown
10:30 AM 68.0 °F 66.2 °F 94% 30.12 in - SSE 20.7 mph - N/A   Unknown
11:00 AM 68.0 °F 66.2 °F 94% 30.12 in - SSE 21.9 mph - N/A   Unknown
11:30 AM 68.0 °F 64.4 °F 88% 30.09 in - SSE 24.2 mph - N/A   Unknown
12:00 PM 69 °F 65 °F 85% 30.11 in - SSE 42.5 mph - -  
12:00 PM 69.8 °F 66.2 °F 88% 30.09 in - SSE 21.9 mph - N/A   Unknown
12:30 PM 68.0 °F 64.4 °F 88% 30.09 in - SSE 19.6 mph - N/A   Unknown
1:00 PM 69.8 °F 66.2 °F 88% 30.06 in - SSE 19.6 mph - N/A   Unknown
1:30 PM 69.8 °F 66.2 °F 88% 30.06 in - SSE 20.7 mph - N/A   Unknown
2:00 PM 69.8 °F 66.2 °F 88% 30.06 in - SSE 21.9 mph - N/A   Unknown
2:30 PM 69.8 °F 66.2 °F 88% 30.04 in - SSE 23.0 mph - N/A   Unknown
3:00 PM 69 °F 66 °F 89% 30.05 in - SSE 24.2 mph - -  
3:00 PM 68.0 °F 66.2 °F 94% 30.04 in - SSE 24.2 mph - N/A   Unknown
3:30 PM 68.0 °F 66.2 °F 94% 30.04 in - SSE 21.9 mph - N/A   Unknown
4:00 PM 68.0 °F 66.2 °F 94% 30.04 in - SSE 21.9 mph - N/A   Unknown
4:30 PM 68.0 °F 66.2 °F 94% 30.04 in - SSE 23.0 mph - N/A   Unknown
5:00 PM 68.0 °F 66.2 °F 94% 30.04 in - SSE 23.0 mph - N/A   Unknown
5:30 PM 68.0 °F 66.2 °F 94% 30.04 in - SE 21.9 mph - N/A   Unknown
6:00 PM 68 °F 67 °F 94% 30.05 in - SE 20.7 mph - -  
6:00 PM 68.0 °F 66.2 °F 94% 30.04 in - SE 20.7 mph - N/A   Unknown
6:30 PM 68.0 °F 66.2 °F 94% 30.06 in - SE 20.7 mph - N/A   Unknown
7:00 PM 68.0 °F 66.2 °F 94% 30.06 in - SE 19.6 mph - N/A   Unknown
7:30 PM 69.8 °F 66.2 °F 88% 30.06 in - SE 21.9 mph - N/A   Unknown
8:00 PM 68.0 °F 66.2 °F 94% 30.06 in - SE 20.7 mph - N/A   Unknown
8:30 PM 69.8 °F 66.2 °F 88% 30.09 in - SE 18.4 mph - N/A   Unknown
9:00 PM 69 °F 67 °F 89% 30.09 in - ESE 42.5 mph - -  
9:00 PM 69.8 °F 66.2 °F 88% 30.09 in - ESE 21.9 mph - N/A   Unknown
9:30 PM 68.0 °F 66.2 °F 94% 30.09 in - ESE 24.2 mph - N/A   Unknown
10:00 PM 69.8 °F 66.2 °F 88% 30.09 in - ESE 21.9 mph - N/A   Unknown
10:30 PM 69.8 °F 66.2 °F 88% 30.09 in - ESE 23.0 mph - N/A   Unknown
11:00 PM 69.8 °F 66.2 °F 88% 30.06 in - ESE 20.7 mph - N/A   Unknown
11:30 PM 69.8 °F 66.2 °F 88% 30.06 in - ESE 20.7 mph - N/A   Unknown